This is the latest recevied weather packets stored in our database for station/object T10BNorth. If no packets are shown the sender has not sent any weather packets the latest 1 day(s).
| Time | Temp. | Humidity | Pressure | Rain* | Wind** | Luminosity | Snow |
|---|---|---|---|---|---|---|---|
| 1778013006 | 23.89° C | 43% | 1001.6 hPa | 0 mm | - | 149 W/m² | - |
| 1778012887 | 23.89° C | 43% | 1001.6 hPa | 0 mm | - | 169 W/m² | - |
| 1778012705 | 23.89° C | 44% | 1001.6 hPa | 0 mm | - | 162 W/m² | - |
| 1778012281 | 23.89° C | 43% | 1001.7 hPa | 0 mm | - | 200 W/m² | - |
| 1778011858 | 23.89° C | 42% | 1001.8 hPa | 0 mm | - | 100 W/m² | - |
| 1778011557 | 23.89° C | 42% | 1001.6 hPa | 0 mm | - | 160 W/m² | - |
| 1778011138 | 24.44° C | 42% | 1001.7 hPa | 0 mm | - | 158 W/m² | - |
| 1778011078 | 24.44° C | 42% | 1001.8 hPa | 0 mm | - | 167 W/m² | - |
| 1778010957 | 24.44° C | 42% | 1001.7 hPa | 0 mm | - | 188 W/m² | - |
| 1778010836 | 24.44° C | 42% | 1001.7 hPa | 0 mm | - | 232 W/m² | - |
| 1778010587 | 25° C | 43% | 1001.7 hPa | 0 mm | - | 176 W/m² | - |
| 1778010394 | 25° C | 44% | 1001.7 hPa | 0 mm | - | 592 W/m² | - |
| 1778010275 | 25° C | 43% | 1001.8 hPa | 0 mm | - | 656 W/m² | - |
| 1778010149 | 24.44° C | 43% | 1001.9 hPa | 0 mm | - | 311 W/m² | - |
| 1778009781 | 24.44° C | 43% | 1002 hPa | 0 mm | - | 308 W/m² | - |
| 1778009607 | 24.44° C | 44% | 1002.1 hPa | 0 mm | - | 322 W/m² | - |
| 1778009413 | 24.44° C | 44% | 1002.2 hPa | 0 mm | - | 213 W/m² | - |
| 1778009351 | 24.44° C | 43% | 1002.1 hPa | 0 mm | - | 225 W/m² | - |
| 1778009167 | 24.44° C | 43% | 1002.2 hPa | 0 mm | - | 877 W/m² | - |
| 1778009049 | 24.44° C | 43% | 1002.3 hPa | 0 mm | - | 313 W/m² | - |
| 1778008920 | 24.44° C | 45% | 1002.2 hPa | 0 mm | - | 313 W/m² | - |
| 1778008859 | 23.89° C | 45% | 1002.3 hPa | 0 mm | - | 334 W/m² | - |
| 1778008801 | 23.89° C | 44% | 1002.3 hPa | 0 mm | - | 759 W/m² | - |
| 1778008607 | 23.89° C | 44% | 1002.3 hPa | 0 mm | - | 355 W/m² | - |
| 1778008426 | 23.89° C | 45% | 1002.4 hPa | 0 mm | - | 376 W/m² | - |
* Rain latest hour (hover to see other rain measurements)
** Current wind speed in m/s (hover to see current wind gust speed)